[[{"header":{"parameterUnit":"m.s-1","parameterCategory":1,"la1":30.2991,"la2":30.254,"lo1":-89.0895,"lo2":-89.0444,"dy":0.0017,"dx":0.0017,"nx":28,"ny":28,"refTime":"2023-10-30T21:00:00:Z","depth":0,"parameterNumber":2,"parameterNumberName":"U-component_of_WINDS"},"data":[0,0,0,0,0,0,0,0,0,0,0,0,0,0,0,0,0,0,0,0,0,0,0,0,0,0,0,0,0,0,0,0,0,0,0,0,0,0,0,0,0,0,0,0,0,0,0,0,0,0,0,0,0,0,0,0,0,0,-0.2855,-0.2855,0,-0.2882,-0.2882,-0.2883,-0.2874,-0.2874,-0.2873,-0.2872,-0.2901,-0.2903,-0.2904,0,0,0,0,0,0,0,0,0,0,0,0,0,-0.2795,-0.2796,-0.2854,-0.2855,-0.2855,-0.2882,-0.2882,-0.2883,-0.2874,-0.2874,-0.2873,-0.2872,-0.2901,-0.2903,-0.2904,0,0,0,0,0,0,0,0,0,0,0,0,0,-0.2821,-0.2796,-0.2854,-0.2854,-0.2854,-0.2882,-0.2882,-0.2883,-0.2874,-0.2874,-0.2873,-0.2872,-0.2901,-0.2902,-0.2904,-0.2934,0,0,-0.291,-0.2911,0,0,0,0,0,0,0,0,-0.282,-0.2823,-0.2854,-0.2854,-0.2855,-0.2874,-0.2872,-0.29,-0.2875,-0.2867,-0.2872,-0.2871,-0.2893,-0.2896,-0.2903,-0.2935,-0.2937,-0.2911,-0.2912,-0.2913,-0.2913,0,0,0,0,0,0,0,-0.2818,-0.2822,-0.2865,-0.2854,-0.2855,-0.2853,-0.2855,-0.2877,-0.2885,-0.2867,-0.2867,-0.287,-0.2893,-0.2901,-0.2903,-0.2937,-0.2911,-0.2912,-0.2913,-0.2914,-0.2994,-0.2995,0,0,0,0,0,0,-0.2816,-0.2821,-0.2864,-0.2866,-0.2835,-0.2854,-0.2858,-0.2868,-0.2884,-0.2886,-0.2871,-0.287,-0.2898,-0.2901,-0.2904,-0.2939,-0.2913,-0.2914,-0.2916,-0.2993,-0.2994,-0.2995,0,0,0,0,0,0,-0.2815,-0.282,-0.2863,-0.2843,-0.2849,-0.2856,-0.2869,-0.2869,-0.2877,-0.2887,-0.2888,-0.2878,-0.2897,-0.2901,-0.2926,-0.294,-0.2915,-0.2917,-0.2992,-0.2993,-0.2995,-0.301,0,0,0,0,0,0,-0.2813,-0.2819,-0.2831,-0.2844,-0.285,-0.2885,-0.287,-0.2871,-0.288,-0.2879,-0.2893,-0.2895,-0.2897,-0.2923,-0.2928,-0.2942,-0.2919,-0.2991,-0.2992,-0.2994,-0.3008,-0.3012,-0.3015,0,0,0,0,0,-0.2811,-0.2835,-0.2832,-0.2837,-0.2864,-0.2886,-0.289,-0.2891,-0.2882,-0.2893,-0.2899,-0.2894,-0.2938,-0.2926,-0.2931,-0.2946,-0.299,-0.2992,-0.2994,-0.3007,-0.3011,-0.3015,0,0,0,0,0,0,-0.2824,-0.2836,-0.2833,-0.2862,-0.2873,-0.2885,-0.2899,-0.2896,-0.291,-0.2908,-0.291,-0.2913,-0.2938,-0.2945,-0.2931,-0.2975,-0.2962,-0.2966,-0.297,-0.2974,-0.2978,-0.2976,-0.292,0,0,0,0,0,-0.283,-0.2847,-0.2857,-0.2881,-0.2887,-0.2892,-0.2901,-0.2901,-0.2913,-0.2918,-0.2926,-0.2937,-0.2953,-0.2964,-0.2979,-0.3009,-0.3011,-0.3022,-0.3025,-0.3027,-0.3031,-0.3046,-0.305,-0.3002,-0.3002,-0.3002,0,0,-0.2844,-0.2852,-0.2863,-0.2884,-0.2892,-0.2909,-0.2896,-0.2915,-0.2927,-0.2921,-0.2945,-0.2951,-0.2963,-0.299,-0.3003,-0.2997,-0.3044,-0.303,-0.3032,-0.3034,-0.3048,-0.3053,-0.3057,-0.3003,-0.3003,-0.3003,0,0,-0.2877,-0.2885,-0.2906,-0.2914,-0.2927,-0.293,-0.2935,-0.2947,-0.295,-0.2974,-0.2969,-0.2984,-0.3011,-0.3021,-0.3029,-0.3063,-0.3059,-0.3068,-0.3085,-0.31,-0.3104,-0.3107,-0.3119,-0.3123,-0.3071,-0.3071,-0.3071,0,-0.2892,-0.2917,-0.2917,-0.2936,-0.2945,-0.2939,-0.296,-0.2968,-0.2985,-0.2991,-0.2984,-0.3018,-0.3026,-0.3055,-0.3063,-0.307,-0.3075,-0.3067,-0.3103,-0.3106,-0.311,-0.3121,-0.3125,-0.3072,-0.3072,-0.3072,-0.3071,0,-0.2935,-0.2952,-0.2967,-0.2983,-0.2994,-0.3014,-0.3016,-0.3027,-0.3026,-0.3029,-0.3053,-0.3062,-0.3079,-0.3086,-0.3085,-0.3114,-0.3109,-0.3102,-0.309,-0.3115,-0.3126,-0.313,-0.3073,-0.3073,-0.3073,-0.3072,0,0,-0.2979,-0.2993,-0.2999,-0.3005,-0.3018,-0.3031,-0.305,-0.3066,-0.3075,-0.3086,-0.3102,-0.3125,-0.3118,-0.3128,-0.3127,-0.314,-0.3166,-0.3132,-0.3132,-0.3138,-0.3198,-0.3203,-0.3209,-0.3163,-0.3164,-0.3164,-0.3197,0,-0.3013,-0.3046,-0.3046,-0.3076,-0.3092,-0.3085,-0.3102,-0.3111,-0.3114,-0.3128,-0.3132,-0.3148,-0.3138,-0.3143,-0.3155,-0.316,-0.3178,-0.3158,-0.3178,-0.3178,-0.3175,-0.3214,-0.322,-0.3251,-0.3201,-0.3202,-0.3202,0,-0.3057,-0.3069,-0.3102,-0.3111,-0.3117,-0.3132,-0.3146,-0.3159,-0.3169,-0.317,-0.318,-0.3177,-0.3196,-0.3182,-0.3207,-0.3193,-0.3201,-0.3204,-0.3206,-0.3208,-0.3193,-0.3218,-0.326,-0.3265,-0.3209,-0.3208,-0.3208,0,-0.3086,-0.311,-0.3133,-0.3138,-0.315,-0.316,-0.3165,-0.3174,-0.3183,-0.3195,-0.3201,-0.3215,-0.3222,-0.3233,-0.3234,-0.3224,-0.326,-0.3246,-0.3261,-0.3261,-0.327,-0.327,-0.3315,-0.3274,-0.3274,-0.3274,-0.3274,0,-0.3125,-0.3145,-0.3145,-0.3159,-0.3181,-0.318,-0.3201,-0.3205,-0.3213,-0.3227,-0.3222,-0.3235,-0.3236,-0.3249,-0.325,-0.3271,-0.3274,-0.3276,-0.3276,-0.3277,-0.3276,-0.3282,-0.328,-0.3275,-0.3275,-0.3275,-0.3275,0,-0.3161,-0.3163,-0.3186,-0.3194,-0.3196,-0.3212,-0.3219,-0.3232,-0.3234,-0.3252,-0.3256,-0.3259,-0.3275,-0.3276,-0.3294,-0.3295,-0.332,-0.3317,-0.3316,-0.3316,-0.3332,-0.333,-0.3383,-0.3389,-0.3344,-0.3345,-0.3345,0,-0.3186,-0.3201,-0.321,-0.3219,-0.3224,-0.3239,-0.3247,-0.3246,-0.3256,-0.3267,-0.3278,-0.3293,-0.3305,-0.333,-0.3334,-0.3347,-0.3345,-0.3363,-0.3347,-0.3347,-0.3346,-0.3345,-0.3346,-0.3366,-0.3366,-0.3367,-0.3367,0,-0.323,-0.3229,-0.3242,-0.3255,-0.3265,-0.3275,-0.3284,-0.3292,-0.3292,-0.3302,-0.3317,-0.3326,-0.3344,-0.3359,-0.3371,-0.3377,-0.3372,-0.3372,-0.3376,-0.3377,-0.3376,-0.3377,-0.3325,-0.3371,-0.337,-0.337,-0.337,-0.337,-0.3262,-0.3274,-0.3282,-0.3296,-0.3303,-0.3311,-0.3323,-0.3326,-0.3339,-0.3353,-0.3351,-0.3368,-0.3376,-0.3393,-0.3398,-0.3411,-0.3406,-0.3412,-0.3414,-0.3415,-0.3417,-0.3373,-0.3414,-0.3414,-0.3413,-0.3413,-0.3413,0,-0.3305,-0.331,-0.3322,-0.3335,-0.3346,-0.3339,-0.3348,-0.3358,-0.3373,-0.3381,-0.3392,-0.3409,-0.3422,-0.3427,-0.344,-0.3449,-0.3447,-0.3453,-0.3452,-0.3453,-0.3421,-0.3416,-0.3454,-0.3454,-0.3454,-0.3454,-0.3454,-0.3454,-0.3329,-0.335,-0.335,-0.3374,-0.3378,-0.3394,-0.34,-0.3407,-0.3413,-0.3432,-0.3443,-0.3446,-0.3452,-0.3465,-0.3477,-0.3478,-0.3483,-0.3489,-0.3489,-0.346,-0.3456,-0.3452,-0.3447,-0.349,-0.349,-0.352,-0.3521,-0.3521]},{"header":{"parameterUnit":"m.s-1","parameterCategory":1,"la1":30.2991,"la2":30.254,"lo1":-89.0895,"lo2":-89.0444,"dy":0.0017,"dx":0.0017,"nx":28,"ny":28,"refTime":"2023-10-30T21:00:00:Z","depth":0,"parameterNumber":3,"parameterNumberName":"V-component_of_WINDS"},"data":[0,0,0,0,0,0,0,0,0,0,0,0,0,0,0,0,0,0,0,0,0,0,0,0,0,0,0,0,0,0,0,0,0,0,0,0,0,0,0,0,0,0,0,0,0,0,0,0,0,0,0,0,0,0,0,0,0,0,-8.0866,-8.0867,0,-8.0971,-8.0972,-8.0973,-8.0899,-8.0895,-8.0892,-8.0889,-8.0989,-8.0994,-8.1,0,0,0,0,0,0,0,0,0,0,0,0,0,-8.0594,-8.0599,-8.0866,-8.0867,-8.0868,-8.0971,-8.0972,-8.0974,-8.0899,-8.0895,-8.0891,-8.0887,-8.0987,-8.0994,-8.1001,0,0,0,0,0,0,0,0,0,0,0,0,0,-8.0706,-8.0601,-8.0866,-8.0844,-8.0843,-8.0971,-8.0972,-8.0974,-8.09,-8.0895,-8.089,-8.0885,-8.0985,-8.0993,-8.1002,-8.1154,0,0,-8.1028,-8.1032,0,0,0,0,0,0,0,0,-8.07,-8.0716,-8.0846,-8.0846,-8.0845,-8.0917,-8.0913,-8.1034,-8.0901,-8.0878,-8.0889,-8.0883,-8.0968,-8.0978,-8.1008,-8.1159,-8.1163,-8.1029,-8.1034,-8.1038,-8.104,0,0,0,0,0,0,0,-8.0692,-8.0711,-8.0907,-8.0848,-8.0847,-8.0827,-8.0837,-8.0936,-8.0949,-8.088,-8.0875,-8.0889,-8.0967,-8.1,-8.101,-8.1164,-8.1028,-8.1036,-8.1041,-8.1045,-8.1446,-8.1451,0,0,0,0,0,0,-8.0688,-8.0706,-8.0904,-8.091,-8.0759,-8.0836,-8.0847,-8.0899,-8.0948,-8.0951,-8.0893,-8.0885,-8.0988,-8.1,-8.1013,-8.1196,-8.1038,-8.1046,-8.1051,-8.144,-8.1447,-8.1453,0,0,0,0,0,0,-8.0682,-8.0706,-8.0899,-8.0807,-8.083,-8.0846,-8.0904,-8.0903,-8.0936,-8.0958,-8.0959,-8.0925,-8.0985,-8.1001,-8.112,-8.1198,-8.1049,-8.1057,-8.1434,-8.1442,-8.145,-8.1561,0,0,0,0,0,0,-8.0675,-8.0705,-8.0764,-8.0809,-8.0835,-8.1007,-8.0908,-8.0909,-8.0952,-8.0943,-8.0988,-8.0991,-8.0982,-8.1108,-8.1129,-8.1207,-8.1064,-8.1427,-8.1437,-8.1447,-8.1551,-8.1573,-8.1591,0,0,0,0,0,-8.0665,-8.0789,-8.0768,-8.0792,-8.091,-8.1012,-8.1026,-8.1016,-8.0959,-8.1018,-8.1032,-8.099,-8.1187,-8.1121,-8.1144,-8.1226,-8.1422,-8.1434,-8.1446,-8.1542,-8.1568,-8.1591,0,0,0,0,0,0,-8.075,-8.0795,-8.0771,-8.0914,-8.096,-8.0999,-8.1073,-8.1044,-8.1105,-8.1093,-8.1075,-8.1086,-8.1211,-8.123,-8.1156,-8.1376,-8.1295,-8.1312,-8.1359,-8.1385,-8.1404,-8.1397,-8.1071,0,0,0,0,0,-8.0786,-8.0867,-8.0901,-8.1023,-8.1048,-8.1057,-8.1101,-8.1089,-8.1135,-8.1153,-8.1176,-8.122,-8.1292,-8.1339,-8.1406,-8.1553,-8.1562,-8.1621,-8.1641,-8.1658,-8.1673,-8.1752,-8.1779,-8.1493,-8.1493,-8.1493,0,0,-8.086,-8.0894,-8.0946,-8.1041,-8.1076,-8.1158,-8.1074,-8.1164,-8.1225,-8.1166,-8.1281,-8.1299,-8.1347,-8.1481,-8.1541,-8.1501,-8.1754,-8.1673,-8.1686,-8.1693,-8.1768,-8.1795,-8.1819,-8.1502,-8.15,-8.1499,0,0,-8.1037,-8.1072,-8.1178,-8.1216,-8.127,-8.1275,-8.1301,-8.1345,-8.1356,-8.1472,-8.143,-8.15,-8.1624,-8.1661,-8.1695,-8.1889,-8.1851,-8.1911,-8.2015,-8.2093,-8.2115,-8.2135,-8.2204,-8.2229,-8.1926,-8.1926,-8.1926,0,-8.1121,-8.1247,-8.1236,-8.1331,-8.1374,-8.1328,-8.1435,-8.147,-8.1543,-8.1572,-8.1527,-8.1683,-8.1712,-8.1854,-8.1902,-8.1931,-8.1959,-8.1905,-8.2114,-8.2133,-8.2152,-8.2217,-8.2243,-8.1933,-8.1932,-8.1931,-8.1931,0,-8.1348,-8.1435,-8.1514,-8.1589,-8.1641,-8.1741,-8.1744,-8.1797,-8.1782,-8.1791,-8.1909,-8.1943,-8.2017,-8.2049,-8.2033,-8.219,-8.2163,-8.2116,-8.2034,-8.2186,-8.2247,-8.2272,-8.1943,-8.194,-8.1938,-8.1936,0,0,-8.158,-8.165,-8.1679,-8.1713,-8.1771,-8.1837,-8.1934,-8.201,-8.2056,-8.2107,-8.2188,-8.2295,-8.2253,-8.2292,-8.228,-8.2348,-8.25,-8.2293,-8.2293,-8.233,-8.2675,-8.271,-8.2739,-8.2476,-8.2481,-8.2485,-8.2671,0,-8.176,-8.1934,-8.1929,-8.209,-8.217,-8.2128,-8.2213,-8.2257,-8.2269,-8.2337,-8.2349,-8.2426,-8.2363,-8.2387,-8.2453,-8.2468,-8.2569,-8.2454,-8.2549,-8.2553,-8.2539,-8.2771,-8.2809,-8.2983,-8.2695,-8.2699,-8.2702,0,-8.1994,-8.2057,-8.2228,-8.2275,-8.2308,-8.2386,-8.2455,-8.2521,-8.2569,-8.2573,-8.2619,-8.2596,-8.2693,-8.2609,-8.2742,-8.2664,-8.2703,-8.2716,-8.2722,-8.2731,-8.2636,-8.2786,-8.3038,-8.3064,-8.2739,-8.2736,-8.2733,0,-8.2147,-8.2274,-8.2393,-8.2423,-8.2481,-8.2537,-8.2563,-8.2606,-8.2652,-8.2712,-8.2741,-8.281,-8.2848,-8.2901,-8.2896,-8.2835,-8.3032,-8.2947,-8.3037,-8.3037,-8.3079,-8.3077,-8.3341,-8.3105,-8.3104,-8.3104,-8.3103,0,-8.2349,-8.2454,-8.2463,-8.2536,-8.2653,-8.2645,-8.276,-8.278,-8.282,-8.2894,-8.2861,-8.2931,-8.2922,-8.2992,-8.2989,-8.31,-8.3117,-8.3121,-8.3119,-8.3125,-8.3124,-8.3149,-8.3137,-8.3111,-8.3109,-8.3108,-8.3107,0,-8.2539,-8.2549,-8.2676,-8.2722,-8.2735,-8.282,-8.2858,-8.2926,-8.2936,-8.3031,-8.3053,-8.3068,-8.3149,-8.315,-8.3242,-8.324,-8.3376,-8.3359,-8.3361,-8.3357,-8.3447,-8.3439,-8.3737,-8.3775,-8.3514,-8.3516,-8.3518,0,-8.2667,-8.2748,-8.2804,-8.2853,-8.2884,-8.2963,-8.3011,-8.3006,-8.3056,-8.3119,-8.3179,-8.3258,-8.3321,-8.3452,-8.3469,-8.3539,-8.3524,-8.3624,-8.3534,-8.3538,-8.3526,-8.3522,-8.353,-8.3642,-8.3644,-8.3647,-8.3649,0,-8.2894,-8.2895,-8.2967,-8.3042,-8.3101,-8.3158,-8.3211,-8.3253,-8.3253,-8.3312,-8.3396,-8.3445,-8.3541,-8.3619,-8.3687,-8.3711,-8.368,-8.3677,-8.3702,-8.3708,-8.3705,-8.3708,-8.3408,-8.367,-8.3668,-8.3666,-8.3665,-8.3664,-8.3057,-8.3128,-8.3179,-8.326,-8.33,-8.3351,-8.3419,-8.3438,-8.351,-8.3589,-8.3581,-8.3675,-8.3721,-8.381,-8.384,-8.3912,-8.3877,-8.3912,-8.3921,-8.393,-8.394,-8.3695,-8.3924,-8.3923,-8.3923,-8.3922,-8.3922,0,-8.3282,-8.3314,-8.3389,-8.3466,-8.353,-8.3499,-8.3556,-8.3611,-8.3695,-8.3742,-8.3806,-8.3903,-8.3979,-8.4003,-8.4077,-8.4129,-8.4117,-8.4149,-8.4145,-8.4151,-8.3967,-8.3939,-8.4158,-8.4158,-8.4158,-8.4158,-8.4158,-8.4157,-8.3407,-8.3525,-8.3533,-8.3671,-8.3701,-8.3795,-8.3831,-8.3877,-8.3915,-8.4026,-8.409,-8.4107,-8.4145,-8.4221,-8.4289,-8.4294,-8.4322,-8.436,-8.4359,-8.4187,-8.4163,-8.4141,-8.4114,-8.4367,-8.4367,-8.4537,-8.4539,-8.454]}]]